Location: Atbuku
(36.4936°N, 30.4362°E)
Time: 09:12:35
(UTC+00:00)

IRS-P3 - Pass Details

Date: 17 March 2026
Orbit: 810 x 816 km, 99.0° (Epoch: 20 April)

Event Time Altitude Azimuth Distance (km) Brightness Sun altitude
Rises 17:41:44 0° 214° (SW) 3,328 7.6 -19.6°
Reaches altitude 10° 17:45:29 10° 242° (WSW) 2,402 7.2 -20.4°
Maximum altitude 17:47:50 13° 268° (W) 2,201 7.4 -20.8°
Drops below altitude 10° 17:50:12 10° 295° (WNW) 2,409 7.7 -21.3°
Sets 17:54:01 0° 323° (NW) 3,346 8.1 -22.0°
